VE7SML-6 Weather Reports


Display with metric or nautical units.
time (UTC)temp
F
wind
direction
speed
MPH
gust
MPH
rain 1hr
in
rain 24hr
in
rain mn
in
humidity
%
barometer
mb
20191017005756 38 157 8.0 21.0 0.00 0.00 0.00 69 878.7
20191017005255 38 135 14.0 20.0 0.00 0.00 0.00 69 878.8
20191017004755 38 180 11.0 20.0 0.00 0.00 0.00 69 878.8
20191017004255 38 180 9.0 21.0 0.00 0.00 0.00 69 878.6
20191017003754 38 135 14.0 23.0 0.00 0.00 0.00 69 878.5
20191017003254 38 157 14.0 18.0 0.00 0.00 0.00 69 878.6
20191017002754 38 180 10.0 19.0 0.00 0.00 0.00 69 878.7
20191017002254 38 180 17.0 19.0 0.00 0.00 0.00 68 878.6
20191017001753 39 157 12.0 18.0 0.00 0.00 0.00 69 878.6
20191017001254 39 157 11.0 21.0 0.00 0.00 0.00 69 878.8
20191017000753 39 135 15.0 22.0 0.00 0.00 0.00 69 878.8
20191017000254 39 157 20.0 23.0 0.00 0.00 0.00 69 878.7
20191016235752 39 157 15.0 25.0 0.00 0.00 0.00 69 878.8
20191016235252 39 135 16.0 20.0 0.00 0.00 0.00 69 878.8
20191016234752 39 157 12.0 23.0 0.00 0.00 0.00 69 878.6
20191016234251 39 157 16.0 22.0 0.00 0.00 0.00 69 878.7
20191016233752 39 135 19.0 23.0 0.00 0.00 0.00 69 878.6
20191016233251 39 135 15.0 25.0 0.00 0.00 0.00 69 878.6
20191016232751 39 157 14.0 23.0 0.00 0.00 0.00 69 878.5
20191016232250 39 157 23.0 23.0 0.00 0.00 0.00 69 878.5
20191016231750 39 157 14.0 22.0 0.00 0.00 0.00 69 878.5
20191016231250 39 135 9.0 23.0 0.00 0.00 0.00 69 878.4
20191016230750 39 135 18.0 20.0 0.00 0.00 0.00 69 878.5
20191016230249 39 135 5.0 17.0 0.00 0.00 0.00 69 878.6
20191016225749 39 157 17.0 20.0 0.00 0.00 0.00 69 878.6
20191016225249 40 135 17.0 25.0 0.00 0.00 0.00 69 878.9
20191016224749 40 157 16.0 25.0 0.00 0.00 0.00 69 878.9
20191016223748 40 157 24.0 24.0 0.00 0.00 0.00 69 879.0
20191016223247 40 135 13.0 23.0 0.00 0.00 0.00 69 879.0
20191016222747 40 135 22.0 27.0 0.00 0.00 0.00 69 878.7
20191016222247 40 180 10.0 27.0 0.00 0.00 0.00 69 878.7
20191016221747 41 157 8.0 28.0 0.00 0.00 0.00 69 878.6
20191016221246 41 157 18.0 26.0 0.00 0.00 0.00 69 878.7
20191016220746 41 135 21.0 28.0 0.00 0.00 0.00 69 878.8
20191016220246 41 157 25.0 27.0 0.00 0.00 0.00 69 878.6
20191016215745 41 157 23.0 29.0 0.00 0.00 0.00 69 878.6
20191016215245 41 157 28.0 30.0 0.00 0.00 0.00 69 878.5
20191016214745 41 180 26.0 28.0 0.00 0.00 0.00 69 878.3
20191016214245 41 180 21.0 32.0 0.00 0.00 0.00 69 878.2
20191016213744 42 157 22.0 30.0 0.00 0.00 0.00 69 877.8
20191016213244 42 157 17.0 30.0 0.00 0.00 0.00 69 877.8
20191016212744 42 157 13.0 27.0 0.00 0.00 0.00 69 877.8
20191016212244 42 180 16.0 30.0 0.00 0.00 0.00 69 877.7
20191016211743 42 157 27.0 34.0 0.00 0.00 0.00 69 877.7
20191016211243 42 180 18.0 30.0 0.00 0.00 0.00 69 877.8
20191016210743 42 180 22.0 34.0 0.00 0.00 0.00 69 877.5
20191016210242 42 157 14.0 33.0 0.00 0.00 0.00 69 877.6
20191016205743 42 157 20.0 36.0 0.00 0.00 0.00 69 877.4
20191016205242 43 180 23.0 33.0 0.00 0.00 0.00 69 877.4
20191016204742 43 180 28.0 35.0 0.00 0.00 0.00 69 877.4
20191016204241 43 157 28.0 35.0 0.00 0.00 0.00 69 877.4
20191016203742 43 157 31.0 37.0 0.00 0.00 0.00 69 877.3
20191016203241 43 157 21.0 39.0 0.00 0.00 0.00 69 877.1
20191016202740 43 180 25.0 37.0 0.00 0.00 0.00 69 877.2
20191016202240 43 180 29.0 40.0 0.00 0.00 0.00 69 877.1
20191016201740 43 157 26.0 38.0 0.00 0.00 0.00 69 877.0
20191016201240 43 157 25.0 38.0 0.00 0.00 0.00 69 877.0
20191016200739 44 180 36.0 37.0 0.00 0.00 0.00 68 877.3
20191016200239 44 157 31.0 44.0 0.00 0.00 0.00 68 877.4
20191016195739 44 157 44.0 49.0 0.00 0.00 0.00 68 877.2
20191016195238 44 157 27.0 40.0 0.00 0.00 0.00 68 877.0
20191016194738 45 180 38.0 40.0 0.00 0.00 0.00 68 877.0
20191016194238 45 180 37.0 43.0 0.00 0.00 0.00 68 876.5
20191016193738 45 180 23.0 49.0 0.00 0.00 0.00 68 876.4
20191016193237 46 157 36.0 47.0 0.00 0.00 0.00 68 876.4
20191016192737 46 157 24.0 45.0 0.00 0.00 0.00 68 876.1
20191016192237 46 202 15.0 42.0 0.00 0.00 0.00 68 876.1
20191016191236 46 157 29.0 45.0 0.00 0.00 0.00 67 876.3
20191016183234 46 157 33.0 44.0 0.00 0.00 0.00 67 876.9
20191016182734 46 157 18.0 45.0 0.00 0.00 0.00 67 877.1
20191016182233 46 157 15.0 45.0 0.00 0.00 0.00 68 877.2
20191016181733 45 135 12.0 40.0 0.00 0.00 0.00 68 877.2
20191016181233 45 180 21.0 40.0 0.00 0.00 0.00 68 877.6
20191016180733 44 180 30.0 37.0 0.00 0.00 0.00 68 877.7
20191016180233 43 157 32.0 42.0 0.00 0.00 0.00 67 877.9
20191016175732 43 157 37.0 43.0 0.00 0.00 0.00 67 878.0
20191016173231 38 112 19.0 35.0 0.00 0.00 0.00 65 878.8
20191016172730 37 180 19.0 28.0 0.00 0.00 0.00 64 879.2
20191016172230 37 180 15.0 25.0 0.00 0.00 0.00 64 879.5
20191016171730 37 157 6.0 13.0 0.00 0.00 0.00 63 879.6
20191016171230 36 180 4.0 16.0 0.00 0.00 0.00 64 879.6
20191016170729 36 180 11.0 20.0 0.00 0.00 0.00 63 879.7
20191016170229 35 180 9.0 18.0 0.00 0.00 0.00 63 879.7
20191016165729 35 67 2.0 6.0 0.00 0.00 0.00 63 879.9
20191016165228 34 45 5.0 6.0 0.00 0.00 0.00 63 880.0
20191016164729 34 180 6.0 6.0 0.00 0.00 0.00 63 880.0
20191016164228 34 202 0.0 5.0 0.00 0.00 0.00 63 880.1
20191016163727 34 0 0.0 12.0 0.00 0.00 0.00 63 880.2
20191016163227 34 180 4.0 7.0 0.00 0.00 0.00 63 880.5
20191016162227 34 180 4.0 6.0 0.00 0.00 0.00 63 880.9
20191016161727 34 225 0.0 0.0 0.00 0.00 0.00 63 881.2
20191016161226 34 180 0.0 3.0 0.00 0.00 0.00 63 881.1
20191016160726 34 157 0.0 5.0 0.00 0.00 0.00 63 881.3
20191016160226 34 180 1.0 7.0 0.00 0.00 0.00 63 881.5
20191016155725 34 112 2.0 7.0 0.00 0.00 0.00 63 881.7
20191016155225 34 157 1.0 5.0 0.00 0.00 0.00 63 881.7
20191016154725 34 157 3.0 6.0 0.00 0.00 0.00 62 881.8
20191016154224 34 157 6.0 7.0 0.00 0.00 0.00 62 881.8
20191016153724 34 157 2.0 4.0 0.00 0.00 0.00 62 882.1
20191016153224 35 180 2.0 5.0 0.00 0.00 0.00 62 882.1
20191016152724 35 180 2.0 4.0 0.00 0.00 0.00 62 882.2
20191016152224 35 135 0.0 4.0 0.00 0.00 0.00 62 882.2
20191016151723 35 135 0.0 5.0 0.00 0.00 0.00 62 882.5
20191016151223 35 180 0.0 1.0 0.00 0.00 0.00 62 882.8
20191016150722 35 180 1.0 5.0 0.00 0.00 0.00 62 882.8
20191016150222 35 180 1.0 8.0 0.00 0.00 0.00 62 882.7
20191016145722 35 112 2.0 8.0 0.00 0.00 0.00 62 882.9
20191016145222 34 135 4.0 7.0 0.00 0.00 0.00 62 883.0
20191016144721 34 112 0.0 2.0 0.00 0.00 0.00 62 882.9
20191016144221 34 112 1.0 1.0 0.00 0.00 0.00 62 882.8
20191016143721 34 112 0.0 0.0 0.00 0.00 0.00 62 882.8
20191016143221 34 112 0.0 0.0 0.00 0.00 0.00 62 883.0
20191016142720 34 112 0.0 0.0 0.00 0.00 0.00 62 883.0
20191016142220 34 112 0.0 2.0 0.00 0.00 0.00 62 882.8
20191016141720 34 112 1.0 5.0 0.00 0.00 0.00 62 882.9
20191016141219 33 67 3.0 5.0 0.00 0.00 0.00 62 883.0
20191016140719 33 90 0.0 7.0 0.00 0.00 0.00 62 882.9
20191016140219 33 45 4.0 8.0 0.00 0.00 0.00 62 883.0
20191016135719 33 45 6.0 9.0 0.00 0.00 0.00 62 883.1
20191016135218 33 45 5.0 8.0 0.00 0.00 0.00 62 883.1
20191016134718 33 22 6.0 6.0 0.00 0.00 0.00 62 883.1
20191016134218 33 45 2.0 2.0 0.00 0.00 0.00 62 883.2
20191016133717 33 135 0.0 4.0 0.00 0.00 0.00 62 883.2
20191016133217 33 135 2.0 5.0 0.00 0.00 0.00 62 883.1
20191016132717 33 112 2.0 6.0 0.00 0.00 0.00 62 883.2
20191016132217 33 45 2.0 4.0 0.00 0.00 0.00 62 883.3
20191016131716 33 157 0.0 3.0 0.00 0.00 0.00 62 883.4
20191016131216 33 157 3.0 5.0 0.00 0.00 0.00 62 883.3
20191016130716 33 90 3.0 8.0 0.00 0.00 0.00 62 883.2
20191016130216 33 45 8.0 9.0 0.00 0.00 0.00 62 883.4
20191016125715 34 45 7.0 8.0 0.00 0.00 0.00 62 883.3
20191016125215 34 45 5.0 8.0 0.00 0.00 0.00 62 883.3
20191016124715 34 45 8.0 9.0 0.00 0.00 0.00 61 883.1
20191016124214 34 45 5.0 9.0 0.00 0.00 0.00 61 883.2
20191016123714 34 22 6.0 6.0 0.00 0.00 0.00 62 883.2
20191016052808 40 157 4.0 11.0 0.00 0.00 0.00 63 886.4
20191016052308 40 157 7.0 11.0 0.00 0.00 0.00 63 886.3
20191016051808 40 157 10.0 15.0 0.00 0.00 0.00 63 886.3
20191016051308 40 180 2.0 13.0 0.00 0.00 0.00 64 886.4
20191016050807 40 157 8.0 12.0 0.00 0.00 0.00 63 886.4
20191016050307 39 135 8.0 12.0 0.00 0.00 0.00 63 886.4
20191016045807 39 135 3.0 13.0 0.00 0.00 0.00 63 886.2
20191016045307 40 202 8.0 10.0 0.00 0.00 0.00 63 886.3
20191016044808 40 180 2.0 7.0 0.00 0.00 0.00 63 886.3
20191016044307 40 180 0.0 8.0 0.00 0.00 0.00 63 886.3
20191016043806 40 112 8.0 10.0 0.00 0.00 0.00 63 886.3
20191016043305 40 180 4.0 9.0 0.00 0.00 0.00 63 886.3
20191016042806 40 135 3.0 7.0 0.00 0.00 0.00 63 886.3
20191016042305 40 157 4.0 9.0 0.00 0.00 0.00 64 886.2
20191016041805 40 202 8.0 15.0 0.00 0.00 0.00 64 886.2
20191016041305 40 157 7.0 15.0 0.00 0.00 0.00 64 886.2
20191016040804 40 157 6.0 12.0 0.00 0.00 0.00 64 886.3
20191016040304 40 180 12.0 12.0 0.00 0.00 0.00 63 886.2
20191016035804 40 157 8.0 11.0 0.00 0.00 0.00 63 886.1
20191016035303 40 135 7.0 11.0 0.00 0.00 0.00 63 886.0
20191016034803 40 157 6.0 12.0 0.00 0.00 0.00 64 886.2
20191016034303 40 157 12.0 12.0 0.00 0.00 0.00 64 886.1
20191016033802 40 157 4.0 17.0 0.00 0.00 0.00 64 886.2
20191016033302 40 135 9.0 14.0 0.00 0.00 0.00 64 886.1
20191016032802 40 135 6.0 17.0 0.00 0.00 0.00 64 886.1
20191016032301 40 135 11.0 16.0 0.00 0.00 0.00 64 886.2
20191016031801 39 180 11.0 20.0 0.00 0.00 0.00 64 886.0
20191016031301 39 135 10.0 18.0 0.00 0.00 0.00 64 885.8
20191016030801 39 180 16.0 16.0 0.00 0.00 0.00 64 885.8
20191016025801 39 135 13.0 28.0 0.00 0.00 0.00 64 885.8
20191016025300 39 135 16.0 17.0 0.00 0.00 0.00 64 885.7
20191016024759 39 157 10.0 17.0 0.00 0.00 0.00 64 885.7
20191016024300 39 135 6.0 17.0 0.00 0.00 0.00 64 885.9
20191016023759 39 157 7.0 17.0 0.00 0.00 0.00 64 885.7
20191016023259 39 112 14.0 18.0 0.00 0.00 0.00 64 885.9
20191016022759 39 157 9.0 26.0 0.00 0.00 0.00 64 885.8
20191016022258 39 135 8.0 20.0 0.00 0.00 0.00 64 885.7
20191016021759 39 135 14.0 19.0 0.00 0.00 0.00 64 885.6
20191016021258 39 157 14.0 20.0 0.00 0.00 0.00 64 885.7
20191016020757 39 135 16.0 17.0 0.00 0.00 0.00 64 885.9
20191016020257 39 135 10.0 16.0 0.00 0.00 0.00 64 886.0
20191016015757 38 135 11.0 19.0 0.00 0.00 0.00 64 885.9
20191016015256 38 157 19.0 19.0 0.00 0.00 0.00 64 885.9
20191016014756 38 135 8.0 15.0 0.00 0.00 0.00 64 885.9
20191016014256 38 157 8.0 15.0 0.00 0.00 0.00 64 886.0
20191016013756 38 157 11.0 14.0 0.00 0.00 0.00 64 886.0
20191016013255 38 112 4.0 13.0 0.00 0.00 0.00 64 886.1
20191016012755 38 157 9.0 19.0 0.00 0.00 0.00 64 886.0
20191016012255 38 157 9.0 18.0 0.00 0.00 0.00 64 885.9
20191016011756 38 157 9.0 16.0 0.00 0.00 0.00 64 886.1
20191016011254 38 157 9.0 16.0 0.00 0.00 0.00 64 886.2
20191016010754 39 157 7.0 12.0 0.00 0.00 0.00 64 886.3
20191016010254 39 157 7.0 15.0 0.00 0.00 0.00 64 886.2